This is the latest recevied weather packets stored in our database for station/object F5PQL-4. If no packets are shown the sender has not sent any weather packets the latest 10 day(s).
| Time | Temp. | Humidity | Pressure | Rain* | Wind** | Luminosity | Snow |
|---|---|---|---|---|---|---|---|
| 1777356396 | 20° C | 46% | 1015.2 hPa | - | - | - | - |
| 1777355496 | 19.44° C | 46% | 1014.9 hPa | - | - | - | - |
| 1777354596 | 18.89° C | 47% | 1015 hPa | - | - | - | - |
| 1777353696 | 17.78° C | 48% | 1015.1 hPa | - | - | - | - |
| 1777352796 | 17.22° C | 49% | 1015.1 hPa | - | - | - | - |
| 1777351896 | 17.22° C | 50% | 1015.1 hPa | - | - | - | - |
| 1777350995 | 17.22° C | 50% | 1015.1 hPa | - | - | - | - |
| 1777350095 | 17.22° C | 50% | 1015.1 hPa | - | - | - | - |
| 1777349195 | 16.67° C | 51% | 1015.2 hPa | - | - | - | - |
| 1777348295 | 16.67° C | 51% | 1015.2 hPa | - | - | - | - |
| 1777347395 | 16.67° C | 50% | 1015.3 hPa | - | - | - | - |
| 1777346495 | 16.67° C | 49% | 1015.4 hPa | - | - | - | - |
| 1777345595 | 16.67° C | 50% | 1015.6 hPa | - | - | - | - |
| 1777344695 | 16.67° C | 49% | 1015.6 hPa | - | - | - | - |
| 1777343795 | 16.67° C | 50% | 1015.7 hPa | - | - | - | - |
| 1777342894 | 16.11° C | 50% | 1015.7 hPa | - | - | - | - |
| 1777341994 | 16.67° C | 49% | 1015.8 hPa | - | - | - | - |
| 1777341094 | 16.11° C | 49% | 1015.9 hPa | - | - | - | - |
| 1777340194 | 16.11° C | 48% | 1015.9 hPa | - | - | - | - |
| 1777339294 | 16.67° C | 47% | 1016 hPa | - | - | - | - |
| 1777338394 | 16.67° C | 46% | 1016 hPa | - | - | - | - |
| 1777337494 | 16.67° C | 46% | 1016.1 hPa | - | - | - | - |
| 1777336594 | 16.67° C | 46% | 1016.1 hPa | - | - | - | - |
| 1777335694 | 16.67° C | 47% | 1016.1 hPa | - | - | - | - |
| 1777334794 | 17.22° C | 46% | 1016.3 hPa | - | - | - | - |
* Rain since midnight (hover to see other rain measurements)
** Current wind speed in m/s (hover to see current wind gust speed)